FW4077 Weather Reports


time (UTC)temp
C
wind
direction
speed
KPH
gust
KPH
rain 1hr
cm
rain 24hr
cm
rain mn
cm
humidity
%
barometer
mb
20260507161536 12 45 3.2 8.0 0.00 2.03 0.00 57 1007.8
20260507160515 12 180 4.8 12.9 0.00 2.06 0.00 59 1007.9
20260507155515 11 45 1.6 6.4 0.00 2.06 0.00 63 1008.0
20260507154515 11 225 1.6 6.4 0.00 2.08 0.00 68 1008.1
20260507153515 10 338 1.6 4.8 0.00 2.08 0.00 77 1008.1
20260507152515 10 248 1.6 4.8 0.00 2.11 0.00 85 1008.0
20260507151515 10 0.0 3.2 0.00 2.13 0.00 89 1008.0
20260507150515 9 0.0 1.6 0.00 2.16 0.00 92 1008.0
20260507145515 8 113 1.6 4.8 0.00 2.18 0.00 95 1008.1
20260507144515 8 0.0 1.6 0.00 2.18 0.00 96 1008.1
20260507143515 8 315 1.6 6.4 0.00 2.21 0.00 96 1008.1
20260507142515 8 270 3.2 6.4 0.00 2.24 0.00 98 1008.1
20260507141517 7 225 1.6 4.8 0.00 2.24 0.00 98 1007.9
20260507140537 6 0.0 3.2 0.00 2.24 0.00 98 1007.9
20260507135517 6 0.0 1.6 0.00 2.24 0.00 98 1007.9
20260507134517 7 0.0 1.6 0.00 2.24 0.00 98 1007.9
20260507133517 7 0.0 0.0 0.00 2.24 0.00 99 1008.0
20260507132517 7 0.0 0.0 0.00 2.24 0.00 99 1007.8
20260507131517 6 0.0 0.0 0.00 2.26 0.00 99 1007.9
20260507130537 6 0.0 3.2 0.00 2.26 0.00 99 1008.1
20260507125637 7 0.0 1.6 0.00 2.26 0.00 99 1008.1
20260507124537 6 0.0 0.0 0.00 2.26 0.00 99 1008.2
20260507123517 6 0.0 0.0 0.00 2.26 0.00 99 1008.1
20260507122516 6 0.0 0.0 0.00 2.26 0.00 99 1008.1
20260507121517 6 0.0 0.0 0.00 2.26 0.00 99 1007.9
20260507120517 6 0.0 0.0 0.00 2.26 0.00 99 1007.7
20260507115516 5 0.0 0.0 0.00 2.26 0.00 99 1007.8
20260507114517 5 0.0 0.0 0.00 2.26 0.00 99 1007.9
20260507113517 5 0.0 0.0 0.00 2.26 0.00 99 1007.9
20260507112517 4 0.0 0.0 0.00 2.26 0.00 98 1007.8
20260507111516 4 0.0 0.0 0.00 2.26 0.00 98 1007.9
20260507110516 3 0.0 0.0 0.00 2.26 0.00 98 1007.9
20260507105517 3 0.0 1.6 0.00 2.26 0.00 98 1008.0
20260507104517 3 0.0 0.0 0.00 2.26 0.00 98 1007.8
20260507103517 3 0.0 0.0 0.00 2.26 0.00 98 1007.7
20260507102537 3 0.0 1.6 0.00 2.26 0.00 98 1007.7
20260507101517 3 0.0 0.0 0.00 2.26 0.00 98 1007.6
20260507100516 3 0.0 0.0 0.00 2.26 0.00 98 1007.6
20260507095517 3 0.0 0.0 0.00 2.26 0.00 97 1007.6
20260507094556 3 0.0 0.0 0.00 2.26 0.00 97 1007.7
20260507093516 3 0.0 0.0 0.00 2.26 0.00 97 1007.7
20260507092516 3 0.0 3.2 0.00 2.29 0.00 97 1007.8
20260507091516 3 0.0 0.0 0.00 2.29 0.00 97 1007.7
20260507090516 3 0.0 0.0 0.00 2.29 0.00 97 1007.7
20260507085516 3 0.0 0.0 0.00 2.29 0.00 97 1007.8
20260507084516 3 0.0 0.0 0.00 2.29 0.00 97 1007.9
20260507083516 4 0.0 0.0 0.00 2.29 0.00 97 1008.0
20260507082517 4 0.0 0.0 0.00 2.29 0.00 97 1008.0
20260507081516 4 0.0 0.0 0.00 2.29 0.00 97 1007.9
20260507080516 5 0.0 1.6 0.00 2.29 0.00 97 1007.8
20260507075516 5 0.0 0.0 0.00 2.29 0.00 97 1007.6
20260507074516 5 0.0 0.0 0.00 2.29 0.00 97 1007.5
20260507073516 5 0.0 0.0 0.00 2.29 0.00 97 1007.6
20260507072516 5 0.0 0.0 0.00 2.29 0.00 97 1007.7
20260507071516 5 0.0 0.0 0.00 2.29 0.00 97 1007.6
20260507070516 5 0.0 0.0 0.00 2.29 0.00 98 1007.7
20260507065516 5 0.0 0.0 0.00 2.29 0.00 98 1007.6
20260507064516 5 0.0 0.0 0.00 2.29 0.00 98 1007.7
20260507063536 5 0.0 0.0 0.00 2.29 0.00 98 1007.8
20260507062516 5 0.0 0.0 0.00 2.29 0.00 97 1007.9
20260507061516 6 0.0 1.6 0.00 2.29 0.00 97 1008.0
20260507060515 6 0.0 0.0 0.00 2.29 0.00 97 1007.7
20260507055516 6 0.0 3.2 0.00 2.29 0.00 97 1008.2
20260507054516 6 0.0 0.0 0.00 2.29 0.00 97 1008.0
20260507053516 6 0.0 0.0 0.00 2.29 0.00 97 1008.3
20260507052536 6 0.0 0.0 0.00 2.29 0.00 98 1008.0
20260507051516 6 0.0 0.0 0.00 2.29 0.00 98 1007.8
20260507050516 6 0.0 0.0 0.00 2.34 0.00 98 1008.0
20260507045515 6 0.0 0.0 0.00 2.34 0.00 98 1007.9
20260507044516 6 0.0 0.0 0.00 2.36 0.00 98 1008.0
20260507043516 6 0.0 0.0 0.00 2.41 0.00 98 1007.8
20260507042556 6 0.0 0.0 0.00 2.41 0.00 98 1007.9
20260507041515 6 0.0 0.0 0.00 2.41 0.00 98 1007.7
20260507040516 6 0.0 0.0 0.00 2.41 0.00 97 1007.7
20260507035516 6 0.0 0.0 0.03 2.41 2.41 97 1007.6
20260507034516 7 0.0 0.0 0.03 2.41 2.41 98 1007.4
20260507033536 7 0.0 0.0 0.03 2.41 2.41 97 1008.1
20260507032536 7 0.0 0.0 0.03 2.41 2.41 98 1008.2
20260507031516 7 0.0 0.0 0.03 2.41 2.41 98 1008.1
20260507030516 7 0.0 0.0 0.05 2.41 2.41 97 1008.2
20260507025516 7 0.0 0.0 0.08 2.39 2.39 97 1008.3
20260507024515 7 0.0 0.0 0.08 2.39 2.39 97 1008.2
20260507023516 7 0.0 0.0 0.10 2.39 2.39 97 1008.6
20260507022516 7 0.0 0.0 0.13 2.39 2.39 97 1008.6
20260507021516 7 0.0 0.0 0.13 2.39 2.39 98 1008.6
20260507020516 7 0.0 0.0 0.13 2.36 2.36 98 1008.5
20260507015516 7 0.0 0.0 0.08 2.31 2.31 97 1008.7
20260507014516 7 0.0 0.0 0.10 2.31 2.31 97 1008.4
20260507013517 7 0.0 1.6 0.08 2.29 2.29 97 1008.4
20260507012536 7 0.0 0.0 0.05 2.26 2.26 97 1008.0
20260507011515 7 0.0 0.0 0.08 2.26 2.26 97 1007.6
20260507010516 7 0.0 1.6 0.08 2.24 2.24 97 1008.0
20260507005516 7 0.0 1.6 0.08 2.24 2.24 97 1007.7
20260507004516 7 0.0 0.0 0.08 2.21 2.21 97 1007.5
20260507003516 7 0.0 0.0 0.08 2.21 2.21 97 1007.1
20260507002516 7 0.0 1.6 0.10 2.21 2.21 97 1007.3
20260507001516 7 0.0 1.6 0.08 2.18 2.18 97 1006.9
20260507000516 8 0.0 1.6 0.05 2.16 2.16 97 1006.9
20260506235515 8 0.0 1.6 0.05 2.16 2.16 97 1006.9
20260506234536 8 0.0 3.2 0.03 2.13 2.13 97 1006.7
20260506233515 8 0.0 1.6 0.03 2.13 2.13 97 1006.6
20260506232515 8 0.0 0.0 0.00 2.11 2.11 97 1006.5
20260506231515 8 0.0 0.0 0.00 2.11 2.11 97 1006.5
20260506230516 8 0.0 0.0 0.05 2.11 2.11 97 1006.1
20260506225535 8 0.0 0.0 0.10 2.11 2.11 97 1006.2
20260506224515 8 0.0 1.6 0.13 2.11 2.11 97 1006.1
20260506223516 8 0.0 1.6 0.18 2.11 2.11 97 1005.8
20260506222515 8 0.0 0.0 0.28 2.11 2.11 97 1005.8
20260506221515 8 0.0 1.6 0.38 2.11 2.11 97 1005.7
20260506220535 8 203 1.6 4.8 0.41 2.06 2.06 97 1006.0
20260506215535 8 0.0 1.6 0.48 2.01 2.01 97 1005.9
20260506214515 8 203 1.6 4.8 0.53 1.98 1.98 96 1005.9
20260506213515 8 293 1.6 3.2 0.53 1.93 1.93 96 1005.7
20260506212515 9 0.0 3.2 0.43 1.83 1.83 96 1005.5
20260506211515 9 158 1.6 3.2 0.38 1.75 1.73 96 1005.4
20260506210515 9 0.0 3.2 0.36 1.73 1.65 96 1005.2
20260506205555 10 0.0 3.2 0.28 1.63 1.52 95 1005.0
20260506204515 10 0.0 3.2 0.25 1.55 1.45 96 1005.0
20260506203516 10 0.0 1.6 0.20 1.52 1.40 95 1005.0
20260506202515 10 113 1.6 3.2 0.20 1.57 1.40 95 1004.9
20260506201515 11 180 1.6 6.4 0.15 1.60 1.35 96 1004.9
20260506200515 11 158 1.6 6.4 0.10 1.55 1.30 96 1004.7
20260506195515 11 0.0 1.6 0.08 1.50 1.24 95 1004.4
20260506194517 12 270 1.6 4.8 0.05 1.45 1.19 95 1004.7
20260506193517 12 0.0 0.0 0.10 1.45 1.19 96 1004.7
20260506192517 12 0.0 0.0 0.15 1.45 1.19 96 1004.9
20260506191517 13 0.0 3.2 0.20 1.45 1.19 96 1004.9
20260506190517 14 315 1.6 3.2 0.28 1.45 1.19 98 1005.0
20260506185517 14 0.0 0.0 0.33 1.42 1.17 98 1005.0
20260506184537 14 0.0 0.0 0.41 1.40 1.14 98 1005.1
20260506183517 14 0.0 0.0 0.43 1.35 1.09 98 1005.3
20260506182517 14 0.0 0.0 0.46 1.30 1.04 98 1005.2
20260506181517 14 0.0 1.6 0.43 1.24 0.99 98 1005.3
20260506180517 13 0.0 1.6 0.38 1.17 0.91 98 1005.5
20260506175517 14 0.0 1.6 0.36 1.09 0.84 98 1005.7
20260506174518 14 0.0 1.6 0.28 0.99 0.74 98 1005.7
20260506173517 14 0.0 3.2 0.23 0.91 0.66 98 1005.6
20260506172517 14 0.0 3.2 0.18 0.84 0.58 98 1005.9
20260506171517 14 0.0 1.6 0.18 0.81 0.56 98 1005.9
20260506170518 13 0.0 1.6 0.18 0.79 0.53 98 1005.9
20260506165518 13 0.0 3.2 0.13 0.74 0.48 98 1005.9
20260506164537 13 0.0 3.2 0.13 0.71 0.46 98 1005.8
20260506163516 13 0.0 3.2 0.10 0.69 0.43 98 1006.0
20260506162517 13 0.0 1.6 0.10 0.66 0.41 98 1006.1